TimeEST,TemperatureF,Dew PointF,Humidity,Sea Level PressureIn,VisibilityMPH,Wind Direction,Wind SpeedMPH,Gust SpeedMPH,PrecipitationIn,Events,Conditions,WindDirDegrees,DateUTC
12:15 AM,26.6,17.6,69,30.11,10.0,NE,9.2,-,N/A,,Overcast,40,2013-03-02 05:15:00
12:35 AM,26.6,17.6,69,30.11,10.0,ENE,9.2,-,N/A,,Overcast,70,2013-03-02 05:35:00
1:15 AM,26.6,19.4,74,30.11,10.0,NE,4.6,-,N/A,,Overcast,40,2013-03-02 06:15:00
1:35 AM,26.6,19.4,74,30.11,10.0,NE,4.6,-,N/A,Snow,Light Snow,50,2013-03-02 06:35:00
2:15 AM,26.6,19.4,74,30.11,10.0,North,4.6,-,N/A,,Overcast,350,2013-03-02 07:15:00
2:35 AM,26.6,19.4,74,30.10,10.0,North,4.6,-,N/A,,Overcast,350,2013-03-02 07:35:00
2:55 AM,26.6,19.4,74,30.10,10.0,Calm,Calm,-,N/A,,Overcast,0,2013-03-02 07:55:00
3:15 AM,26.6,19.4,74,30.09,10.0,Calm,Calm,-,N/A,,Overcast,0,2013-03-02 08:15:00
3:55 AM,26.6,19.4,74,30.09,10.0,North,5.8,-,N/A,,Overcast,360,2013-03-02 08:55:00
4:15 AM,26.6,19.4,74,30.09,10.0,North,5.8,-,N/A,,Overcast,350,2013-03-02 09:15:00
4:35 AM,26.6,19.4,74,30.09,10.0,North,5.8,-,N/A,,Overcast,350,2013-03-02 09:35:00
4:55 AM,26.6,19.4,74,30.09,10.0,North,6.9,-,N/A,,Overcast,360,2013-03-02 09:55:00
5:15 AM,26.6,19.4,74,30.09,10.0,North,6.9,-,N/A,,Overcast,350,2013-03-02 10:15:00
5:35 AM,26.6,19.4,74,30.09,10.0,North,6.9,-,N/A,,Overcast,10,2013-03-02 10:35:00
5:55 AM,26.6,17.6,69,30.08,10.0,North,8.1,-,N/A,,Overcast,350,2013-03-02 10:55:00
6:15 AM,26.6,17.6,69,30.09,10.0,North,8.1,-,N/A,,Overcast,360,2013-03-02 11:15:00
6:35 AM,26.6,17.6,69,30.09,10.0,North,5.8,-,N/A,,Overcast,360,2013-03-02 11:35:00
6:55 AM,26.6,17.6,69,30.09,10.0,North,10.4,-,N/A,,Overcast,350,2013-03-02 11:55:00
7:15 AM,26.6,17.6,69,30.09,10.0,North,11.5,-,N/A,,Overcast,350,2013-03-02 12:15:00
7:55 AM,26.6,19.4,74,30.10,10.0,NNE,6.9,-,N/A,,Overcast,20,2013-03-02 12:55:00
8:15 AM,26.6,17.6,69,30.10,10.0,NNE,5.8,-,N/A,,Overcast,20,2013-03-02 13:15:00
8:35 AM,26.6,17.6,69,30.10,10.0,North,8.1,-,N/A,,Overcast,10,2013-03-02 13:35:00
8:55 AM,26.6,17.6,69,30.11,10.0,North,6.9,-,N/A,,Overcast,360,2013-03-02 13:55:00
9:15 AM,26.6,19.4,74,30.11,10.0,NNE,11.5,-,N/A,,Overcast,20,2013-03-02 14:15:00
9:35 AM,28.4,19.4,69,30.11,10.0,NNE,10.4,-,N/A,,Mostly Cloudy,20,2013-03-02 14:35:00
9:55 AM,28.4,19.4,69,30.11,10.0,NNW,15.0,-,N/A,,Overcast,340,2013-03-02 14:55:00
10:15 AM,26.6,17.6,69,30.11,10.0,NNW,10.4,-,N/A,,Overcast,340,2013-03-02 15:15:00
10:35 AM,28.4,17.6,64,30.11,10.0,North,9.2,17.3,N/A,,Mostly Cloudy,360,2013-03-02 15:35:00
10:55 AM,28.4,17.6,64,30.11,10.0,North,10.4,17.3,N/A,,Overcast,350,2013-03-02 15:55:00
11:15 AM,28.4,17.6,64,30.10,10.0,North,12.7,18.4,N/A,,Mostly Cloudy,350,2013-03-02 16:15:00
11:35 AM,30.2,17.6,60,30.10,10.0,North,12.7,-,N/A,,Scattered Clouds,10,2013-03-02 16:35:00
12:15 PM,30.2,17.6,60,30.10,10.0,NW,12.7,18.4,N/A,,Mostly Cloudy,320,2013-03-02 17:15:00
12:35 PM,30.2,17.6,60,30.10,10.0,NW,11.5,17.3,N/A,,Mostly Cloudy,320,2013-03-02 17:35:00
12:55 PM,30.2,17.6,60,30.10,10.0,NNW,11.5,-,N/A,,Mostly Cloudy,340,2013-03-02 17:55:00
1:15 PM,30.2,19.4,64,30.09,10.0,North,11.5,-,N/A,,Scattered Clouds,350,2013-03-02 18:15:00
1:35 PM,32.0,19.4,60,30.08,10.0,NW,8.1,-,N/A,,Scattered Clouds,320,2013-03-02 18:35:00
1:55 PM,30.2,19.4,64,30.07,10.0,NW,11.5,17.3,N/A,,Mostly Cloudy,320,2013-03-02 18:55:00
2:15 PM,30.2,19.4,64,30.07,10.0,NNW,6.9,-,N/A,,Scattered Clouds,340,2013-03-02 19:15:00
2:35 PM,32.0,19.4,60,30.07,10.0,NNW,9.2,-,N/A,,Mostly Cloudy,340,2013-03-02 19:35:00
2:55 PM,32.0,19.4,60,30.06,10.0,North,11.5,-,N/A,,Mostly Cloudy,350,2013-03-02 19:55:00
3:15 PM,32.0,19.4,60,30.06,10.0,NNW,11.5,-,N/A,,Mostly Cloudy,340,2013-03-02 20:15:00
3:55 PM,32.0,21.2,64,30.06,10.0,NNW,10.4,-,N/A,,Overcast,340,2013-03-02 20:55:00
4:15 PM,30.2,19.4,64,30.06,10.0,NNW,11.5,17.3,N/A,,Overcast,340,2013-03-02 21:15:00
4:35 PM,30.2,19.4,64,30.07,10.0,NNW,9.2,21.9,N/A,,Overcast,340,2013-03-02 21:35:00
4:55 PM,30.2,19.4,64,30.07,10.0,NNW,10.4,-,N/A,,Overcast,330,2013-03-02 21:55:00
5:15 PM,30.2,19.4,64,30.07,10.0,NNW,10.4,-,N/A,,Overcast,330,2013-03-02 22:15:00
5:35 PM,30.2,19.4,64,30.07,10.0,NW,10.4,-,N/A,,Overcast,310,2013-03-02 22:35:00
5:55 PM,28.4,19.4,69,30.08,10.0,NNW,12.7,-,N/A,,Overcast,340,2013-03-02 22:55:00
6:15 PM,28.4,19.4,69,30.08,10.0,NW,12.7,-,N/A,,Overcast,320,2013-03-02 23:15:00
6:35 PM,28.4,19.4,69,30.09,10.0,NW,11.5,16.1,N/A,,Overcast,320,2013-03-02 23:35:00
6:55 PM,28.4,19.4,69,30.09,10.0,NW,11.5,-,N/A,,Overcast,320,2013-03-02 23:55:00
7:15 PM,28.4,19.4,69,30.09,10.0,NNW,15.0,21.9,N/A,,Overcast,330,2013-03-03 00:15:00
7:35 PM,28.4,17.6,64,30.10,10.0,NNW,11.5,17.3,N/A,,Overcast,330,2013-03-03 00:35:00
7:55 PM,28.4,17.6,64,30.10,10.0,North,5.8,16.1,N/A,,Overcast,360,2013-03-03 00:55:00
8:15 PM,28.4,17.6,64,30.09,10.0,NNW,9.2,-,N/A,,Overcast,340,2013-03-03 01:15:00
8:35 PM,28.4,17.6,64,30.09,10.0,North,5.8,-,N/A,,Overcast,10,2013-03-03 01:35:00
9:15 PM,28.4,19.4,69,30.10,10.0,North,5.8,-,N/A,,Overcast,360,2013-03-03 02:15:00
9:35 PM,28.4,19.4,69,30.10,10.0,North,6.9,-,N/A,,Overcast,360,2013-03-03 02:35:00
9:55 PM,28.4,19.4,69,30.10,10.0,North,8.1,-,N/A,,Overcast,10,2013-03-03 02:55:00
10:15 PM,28.4,19.4,69,30.10,10.0,North,6.9,-,N/A,,Overcast,360,2013-03-03 03:15:00
10:35 PM,28.4,19.4,69,30.10,10.0,North,4.6,-,N/A,,Overcast,10,2013-03-03 03:35:00
10:55 PM,28.4,19.4,69,30.10,10.0,North,5.8,-,N/A,,Overcast,350,2013-03-03 03:55:00
11:15 PM,28.4,19.4,69,30.10,10.0,North,5.8,-,N/A,,Overcast,360,2013-03-03 04:15:00
11:35 PM,28.4,19.4,69,30.09,10.0,North,3.5,-,N/A,,Overcast,10,2013-03-03 04:35:00
11:55 PM,26.6,19.4,74,30.09,10.0,North,3.5,-,N/A,,Overcast,360,2013-03-03 04:55:00